Wind_Speed
5 6 7 6 7 7 7 6 6 7 6 6 6 6 6 7 7 8 10 11 11 11 10 10 11 11 11 10 11 10 10 8 8 7 5 4 3 3 3 2 2 1 1
5 5 6 7 7 7 7 6 6 6 6 7 6 6 8 9 9 10 12 12 12 11 10 10 10 10 10 10 9 10 8 7 6 6 5 4 3 4 3 2 1 1 1
6 5 6 6 6 6 6 6 6 6 7 7 7 8 10 11 11 12 12 12 11 11 11 11 10 10 10 9 9 8 6 6 6 5 4 3 3 2 1 1 1 1 1
6 5 5 5 5 6 6 6 6 7 7 7 7 9 10 10 10 11 12 12 12 12 12 12 11 10 10 9 8 7 7 5 5 4 4 3 2 1 1 1 1 1 1
6 6 6 5 5 5 5 5 6 7 7 7 7 9 10 10 11 12 13 12 12 12 12 11 10 10 9 8 8 7 7 6 5 4 4 3 2 2 1 0 0 1 2
6 6 6 6 5 5 5 5 6 7 8 8 8 9 10 11 11 12 12 12 12 12 11 11 9 9 8 7 8 7 6 5 4 3 3 2 2 2 1 1 1 2 2
6 6 6 6 5 5 6 6 6 7 8 9 9 10 10 11 11 11 11 12 12 11 10 9 8 9 8 7 7 6 6 5 4 3 2 2 1 0 0 1 2 2 3
7 7 7 6 6 6 6 6 6 7 8 10 10 10 11 12 11 11 11 11 10 10 9 8 8 7 7 7 6 6 6 4 3 2 1 1 1 0 0 1 2 3 3
7 8 7 7 8 8 7 6 7 7 9 10 11 11 12 12 11 11 10 10 9 9 9 8 8 7 6 6 6 6 5 3 2 1 1 1 1 0 1 2 2 2 3
8 8 8 8 8 8 8 7 8 8 10 11 12 12 11 10 10 10 10 9 9 8 8 8 7 7 5 5 5 4 3 2 1 1 1 0 1 1 2 2 2 2 3
8 8 8 8 8 8 8 8 9 10 11 11 11 11 11 11 10 9 9 9 8 8 7 7 7 6 5 4 3 3 2 2 1 2 1 1 1 2 2 3 3 3 3
8 8 8 8 8 9 9 9 10 11 11 11 10 10 11 11 10 9 9 8 8 7 6 6 6 6 5 3 3 2 2 1 1 2 2 2 2 3 3 3 4 4 4
8 8 9 9 9 9 9 9 10 10 11 10 10 10 10 10 9 9 9 8 7 7 6 5 6 5 4 3 2 1 1 0 1 2 2 3 3 3 4 4 4 4 4
8 8 8 9 9 9 9 9 9 10 10 10 10 10 10 9 9 8 7 7 7 7 6 5 5 4 3 2 1 1 0 1 1 1 2 3 4 4 5 5 5 4 5
8 8 8 8 9 9 9 8 8 8 8 8 9 9 9 8 8 8 7 6 6 6 5 5 5 3 2 1 1 1 1 1 2 3 3 4 5 5 5 5 5 6 6
8 7 8 8 8 8 8 8 7 7 7 7 7 8 8 7 7 7 6 6 5 5 4 4 3 2 1 1 1 1 1 2 2 3 3 4 4 5 5 6 6 7 7
6 7 7 8 8 8 8 8 7 7 6 5 6 7 7 7 6 6 6 5 5 4 3 3 3 2 2 1 1 1 1 2 2 3 4 4 5 6 5 6 6 7 7
5 6 6 6 7 7 7 7 6 6 6 5 5 6 7 7 6 5 4 4 4 4 3 3 2 2 1 1 1 1 1 2 3 4 4 4 5 6 6 6 7 7 8
4 4 5 6 6 6 6 6 5 5 5 5 5 5 6 6 5 5 4 3 3 2 2 2 2 2 2 1 1 2 2 3 4 4 5 5 6 7 8 7 7 8 8
4 5 5 5 5 5 5 5 4 4 4 5 5 5 5 5 4 4 3 2 2 1 1 1 1 1 1 2 2 3 3 4 5 5 6 6 7 8 8 8 8 9 9
4 4 4 4 4 4 4 4 3 3 4 4 4 4 4 4 3 3 2 2 1 1 1 1 1 2 2 3 4 4 5 5 6 7 7 8 8 9 9 9 10 10 11
3 3 3 3 2 2 2 3 3 3 3 3 3 3 3 2 2 2 1 2 1 0 1 2 2 2 3 3 4 5 6 6 7 8 8 8 9 9 10 11 12 11 12
2 2 1 2 2 1 1 1 2 3 2 2 2 2 2 1 1 1 1 1 1 2 2 2 3 4 4 4 5 5 6 6 7 8 8 8 9 10 10 11 11 12 13
1 1 1 1 1 1 1 1 2 1 0 1 1 2 2 2 2 2 2 2 3 3 3 3 3 4 4 5 6 6 7 7 8 8 9 9 10 11 11 13 13 14 14
2 2 1 1 1 1 1 0 1 2 2 2 2 2 3 3 3 4 4 4 4 5 5 5 5 6 5 6 7 7 8 8 8 9 10 10 11 12 13 14 15 15 15
3 3 3 2 3 3 2 2 3 3 3 3 3 4 4 4 5 6 6 6 6 6 6 7 7 7 7 7 8 8 8 9 9 10 10 11 12 13 14 15 15 16 16
Wind_Direction
97 97 102 115 118 119 122 118 110 114 118 115 116 113 113 115 115 124 129 131 131 132 132 136 145 147 144 145 147 146 148 153 159 166 163 158 167 173 187 191 207 204 191
99 103 103 115 124 124 122 118 114 117 119 118 113 111 115 119 119 126 127 129 131 133 136 139 142 147 144 145 145 144 143 150 153 159 150 150 167 180 188 210 190 225 236
102 106 108 116 122 121 119 121 118 118 126 125 118 112 114 116 116 124 128 133 135 131 133 137 138 142 144 141 143 144 141 141 140 149 157 174 190 191 175 183 219 264 274
100 99 107 106 106 112 117 118 121 122 132 131 123 120 121 119 122 125 131 134 133 131 133 136 138 141 141 136 142 144 138 141 137 147 159 163 158 144 164 222 262 276 312
100 103 109 103 102 102 107 114 120 123 133 135 131 125 122 127 126 128 128 128 130 131 133 134 135 138 137 134 139 137 136 136 132 131 129 124 103 90 120 47 294 295 308
101 109 106 98 96 99 100 113 123 128 135 138 139 132 128 129 130 126 125 121 126 131 134 132 131 138 136 130 132 132 132 133 128 131 120 103 101 81 77 339 314 297 289
97 103 104 95 95 100 100 106 116 130 137 140 137 136 137 134 131 127 128 126 126 127 129 131 130 136 132 129 127 131 128 125 116 114 113 108 126 143 299 315 311 299 291
93 100 101 95 94 94 99 107 119 129 134 136 134 134 134 133 131 129 128 130 131 131 133 134 133 135 131 129 130 132 132 125 112 112 106 92 107 171 303 314 304 295 286
99 100 101 99 94 93 93 100 110 122 132 135 134 132 129 129 130 129 128 129 130 133 136 138 137 139 132 131 129 130 125 114 114 105 151 141 115 19 332 329 327 310 279
101 99 100 102 96 90 87 93 102 115 130 132 128 127 128 130 130 131 131 132 130 131 134 137 140 141 133 128 120 112 101 99 86 60 66 52 22 331 320 328 334 329 298
103 102 102 100 93 90 92 100 106 110 122 130 131 129 128 129 130 132 136 137 136 135 137 142 147 147 135 124 113 105 100 85 58 23 23 0 354 342 331 331 322 321 310
103 104 107 105 98 95 96 99 104 110 118 125 130 130 127 126 130 136 136 136 139 141 141 143 151 143 138 127 116 106 98 75 48 20 17 355 343 332 323 315 311 310 303
102 106 108 109 104 99 100 100 103 109 117 121 122 128 128 128 130 132 131 133 135 134 134 137 146 141 141 131 122 114 105 51 21 11 352 348 342 330 326 316 320 316 305
101 106 107 108 108 104 104 107 107 108 112 115 117 123 128 127 125 124 126 134 133 130 131 134 143 144 146 143 139 127 344 347 341 354 340 335 330 323 322 320 321 314 302
101 104 105 105 106 108 110 112 113 113 115 115 117 121 122 124 121 124 123 121 127 132 134 132 138 139 136 143 157 133 346 343 337 337 329 332 335 328 332 323 314 309 301
100 105 106 106 107 108 109 111 112 118 119 117 117 123 123 125 126 127 120 116 115 125 127 131 133 145 172 198 200 219 307 330 338 337 336 341 339 332 332 327 318 313 306
101 102 106 105 107 110 112 110 113 118 117 118 119 129 127 129 128 125 122 119 118 126 145 150 153 174 174 182 190 229 293 311 329 325 326 340 335 332 331 325 319 317 314
101 103 103 105 110 112 115 115 114 116 114 113 119 129 129 128 131 130 130 128 122 128 145 150 147 165 188 224 243 268 296 316 328 323 326 333 330 331 331 325 320 319 316
99 103 104 108 113 112 115 118 114 115 119 118 122 125 130 132 130 126 132 133 136 133 143 164 170 183 206 235 262 276 299 308 318 324 327 327 323 323 324 320 319 320 318
101 104 104 109 113 112 107 111 116 116 120 124 123 124 130 138 139 136 130 126 131 139 159 197 246 260 259 277 281 291 303 311 314 316 315 316 315 316 317 314 312 315 315
109 107 102 103 113 108 100 104 113 125 125 119 126 129 133 138 139 133 128 142 131 136 194 267 299 286 283 287 288 292 303 313 313 313 313 311 314 319 317 316 314 314 314
112 111 98 100 108 108 100 104 120 124 122 119 129 133 135 143 144 151 152 153 160 232 263 266 284 278 281 292 295 296 301 307 305 307 310 311 317 321 319 315 312 313 315
92 95 96 104 97 105 109 136 127 114 112 127 150 156 161 183 197 208 221 209 225 254 261 264 261 279 282 281 280 286 292 298 307 305 307 314 317 318 319 320 319 318 317
355 16 33 74 87 89 78 157 158 146 146 212 217 218 217 233 259 279 286 282 275 273 275 278 274 280 288 281 281 284 287 295 304 306 308 312 320 321 320 321 320 319 319
285 294 296 317 321 332 347 225 218 234 249 261 266 259 255 262 276 287 288 287 284 279 276 277 286 288 295 294 291 291 293 298 305 309 310 312 314 316 317 319 318 317 316
275 278 283 292 294 293 294 273 256 256 257 262 272 270 271 277 283 287 289 284 283 282 276 279 281 285 291 293 292 293 297 301 301 303 307 309 310 312 313 314 313 313 313
Height
5879 5878 5878 5878 5878 5878 5878 5878 5878 5878 5878 5878 5877 5876 5875 5874 5873 5874 5874 5875 5877 5878 5879 5880 5881 5882 5883 5884 5885 5887 5888 5889 5890 5891 5892 5892 5893 5893 5893 5894 5894 5894 5894
5880 5879 5879 5879 5879 5879 5879 5879 5879 5879 5879 5878 5878 5877 5875 5875 5875 5875 5876 5877 5878 5880 5881 5882 5883 5884 5885 5886 5887 5888 5889 5890 5891 5891 5892 5893 5893 5893 5894 5894 5894 5894 5894
5881 5880 5880 5880 5880 5880 5880 5879 5879 5879 5879 5879 5878 5877 5876 5876 5876 5877 5878 5878 5879 5881 5882 5884 5885 5885 5887 5887 5888 5890 5890 5891 5891 5892 5893 5893 5893 5894 5894 5894 5894 5894 5894
5882 5881 5881 5881 5881 5881 5880 5880 5880 5880 5880 5879 5879 5878 5878 5878 5878 5878 5879 5880 5881 5882 5884 5885 5886 5888 5888 5889 5890 5891 5891 5892 5892 5892 5893 5894 5894 5894 5894 5895 5895 5895 5894
5883 5882 5882 5882 5882 5881 5881 5880 5880 5880 5879 5879 5879 5879 5879 5879 5879 5880 5881 5881 5882 5884 5885 5887 5888 5889 5890 5891 5891 5892 5893 5893 5893 5893 5894 5894 5895 5895 5895 5895 5895 5895 5895
5884 5883 5883 5883 5883 5882 5881 5881 5880 5879 5879 5880 5880 5880 5880 5881 5881 5882 5883 5883 5885 5886 5887 5888 5889 5890 5891 5892 5892 5893 5894 5894 5894 5895 5895 5895 5895 5895 5896 5896 5896 5895 5895
5885 5884 5884 5884 5884 5883 5882 5881 5880 5879 5879 5879 5880 5881 5882 5883 5883 5884 5885 5886 5887 5888 5889 5890 5891 5891 5892 5893 5894 5895 5895 5895 5896 5895 5896 5896 5896 5896 5896 5896 5896 5895 5895
5886 5885 5885 5885 5885 5884 5883 5881 5880 5879 5879 5879 5880 5882 5883 5884 5885 5886 5887 5888 5888 5889 5891 5891 5892 5893 5894 5894 5895 5896 5896 5897 5896 5896 5896 5896 5896 5896 5896 5896 5896 5895 5895
5887 5887 5887 5886 5886 5885 5883 5882 5880 5879 5879 5880 5881 5883 5885 5886 5887 5888 5888 5889 5890 5891 5892 5893 5893 5894 5895 5895 5896 5896 5897 5897 5897 5897 5897 5897 5897 5897 5897 5896 5895 5895 5894
5889 5889 5888 5888 5887 5886 5885 5883 5881 5879 5879 5882 5883 5885 5886 5887 5888 5889 5890 5890 5891 5892 5893 5894 5895 5895 5896 5897 5897 5897 5897 5898 5898 5897 5897 5897 5897 5897 5897 5896 5895 5895 5894
5890 5890 5890 5889 5889 5888 5886 5884 5883 5881 5882 5884 5885 5887 5888 5889 5890 5890 5891 5892 5893 5893 5894 5895 5896 5896 5897 5897 5898 5898 5898 5898 5898 5898 5897 5897 5897 5897 5896 5896 5895 5895 5894
5892 5892 5891 5891 5890 5890 5889 5887 5887 5886 5886 5887 5888 5889 5889 5890 5891 5891 5892 5893 5894 5894 5895 5895 5896 5897 5897 5898 5898 5898 5899 5899 5899 5898 5898 5897 5897 5897 5896 5895 5895 5894 5894
5894 5893 5893 5892 5892 5891 5891 5890 5890 5889 5890 5890 5890 5891 5892 5892 5892 5893 5893 5894 5895 5895 5896 5896 5897 5897 5898 5898 5898 5899 5899 5899 5899 5898 5898 5898 5897 5897 5896 5895 5894 5894 5893
5895 5895 5895 5894 5894 5893 5893 5893 5893 5892 5892 5893 5893 5893 5894 5894 5894 5895 5895 5895 5896 5896 5897 5897 5898 5898 5898 5899 5899 5899 5899 5899 5899 5898 5898 5897 5897 5896 5895 5895 5894 5893 5893
5897 5897 5896 5896 5895 5895 5895 5895 5895 5895 5895 5895 5895 5895 5895 5896 5896 5896 5897 5897 5897 5897 5898 5898 5898 5899 5899 5899 5899 5899 5899 5899 5899 5898 5898 5897 5896 5896 5895 5894 5893 5893 5892
5899 5899 5898 5897 5897 5897 5897 5897 5897 5896 5897 5897 5897 5897 5897 5897 5897 5898 5898 5898 5898 5898 5899 5899 5899 5899 5899 5899 5899 5899 5899 5899 5898 5898 5897 5897 5896 5895 5894 5894 5893 5892 5891
5901 5900 5899 5899 5899 5898 5898 5898 5898 5898 5898 5898 5898 5898 5898 5898 5899 5899 5899 5899 5899 5899 5899 5899 5899 5899 5900 5899 5899 5899 5899 5899 5898 5898 5897 5896 5896 5895 5894 5893 5892 5891 5890
5902 5901 5901 5900 5900 5900 5900 5900 5899 5899 5899 5899 5899 5899 5899 5899 5899 5900 5900 5900 5900 5900 5900 5900 5900 5900 5900 5900 5900 5900 5899 5899 5898 5898 5897 5896 5895 5895 5893 5892 5891 5890 5889
5903 5902 5902 5902 5902 5902 5901 5901 5901 5901 5900 5900 5900 5900 5900 5900 5900 5900 5900 5901 5901 5901 5901 5900 5901 5900 5900 5900 5900 5900 5899 5899 5898 5897 5896 5896 5895 5893 5892 5891 5890 5889 5887
5904 5904 5903 5903 5903 5903 5903 5902 5902 5902 5902 5901 5901 5901 5901 5901 5901 5901 5901 5901 5901 5901 5901 5901 5901 5900 5900 5900 5900 5899 5899 5898 5897 5896 5896 5895 5893 5892 5891 5890 5889 5887 5886
5905 5905 5904 5904 5903 5903 5903 5903 5903 5903 5903 5902 5902 5902 5902 5902 5901 5901 5901 5901 5901 5901 5901 5901 5900 5900 5900 5899 5899 5899 5898 5897 5897 5896 5895 5894 5892 5891 5890 5888 5887 5886 5884
5907 5906 5906 5905 5905 5904 5904 5904 5904 5903 5903 5903 5903 5902 5902 5902 5902 5902 5902 5901 5901 5900 5900 5900 5900 5899 5899 5899 5898 5898 5897 5897 5896 5894 5893 5892 5891 5890 5889 5887 5885 5884 5882
5907 5907 5907 5906 5906 5905 5905 5904 5904 5904 5904 5903 5903 5903 5903 5902 5902 5902 5901 5901 5901 5900 5900 5899 5899 5899 5898 5898 5898 5897 5897 5896 5895 5894 5892 5891 5890 5888 5887 5885 5883 5881 5880
5908 5907 5907 5907 5906 5905 5905 5904 5904 5904 5904 5904 5903 5903 5903 5902 5902 5902 5901 5901 5900 5900 5899 5899 5898 5898 5897 5897 5896 5896 5895 5894 5894 5892 5891 5889 5888 5886 5885 5883 5881 5879 5877
5908 5908 5907 5907 5906 5906 5905 5905 5905 5904 5904 5904 5903 5903 5903 5902 5902 5901 5901 5900 5899 5899 5898 5898 5897 5896 5896 5895 5895 5894 5894 5893 5892 5891 5889 5888 5886 5884 5883 5881 5879 5877 5875
5908 5907 5907 5907 5906 5906 5905 5905 5904 5904 5904 5904 5903 5903 5902 5902 5901 5900 5899 5899 5898 5898 5897 5897 5896 5895 5894 5894 5893 5892 5892 5891 5890 5888 5887 5885 5884 5882 5880 5879 5876 5874 5872